Location: L�Adrech
(44.2500°N, 6.4167°E)
Time: 13:04:07
(UTC+00:00)

SL-16 R/B - Pass Details

Date: 07 June 2020
Orbit: 986 x 1006 km, 99.5° (Epoch: 11 July)

Event Time Altitude Azimuth Distance (km) Brightness Sun altitude
Exits shadow 00:10:22 11° 124° (SE) 2,699 4.6 -22.4°
Maximum altitude 00:15:39 34° 63° (ENE) 1,578 3.9 -22.3°
Drops below altitude 10° 00:21:06 10° 1° (N) 2,763 6.0 -22.1°
Sets 00:23:48 0° 353° (N) 3,719 6.8 -22.0°
